MPEC 2004-T31 : 2004 TE10

The following Minor Planet Electronic Circular may be linked-to from your own Web pages, but must not otherwise be redistributed electronically.


Read MPEC 2004-T30 Read MPEC 2004-T32


M.P.E.C. 2004-T31                                Issued 2004 Oct.  9, 14:53 UT

     The Minor Planet Electronic Circulars contain information on unusual
         minor planets and routine data on comets.  They are published
   on behalf of Commission 20 of the International Astronomical Union by the
          Minor Planet Center, Smithsonian Astrophysical Observatory,
                          Cambridge, MA 02138, U.S.A.

                  Supported in part by the Brinson Foundation
             Prepared using the Tamkin Foundation Computer Network

                              MPC@CFA.HARVARD.EDU
          URL http://cfa-www.harvard.edu/iau/mpc.html  ISSN 1523-6714

                                   2004 TE10

Observations:
     K04T10E* C2004 10 07.38797 04 31 43.47 -00 48 30.2          16.5   ET031704
     K04T10E  C2004 10 07.39855 04 30 42.09 -00 41 32.7          16.5   ET031704
     K04T10E  C2004 10 07.40913 04 29 41.42 -00 34 40.5          17.1   ET031704
     K04T10E  C2004 10 07.41971 04 28 41.50 -00 27 53.1          16.8   ET031704
     K04T10E  C2004 10 08.16300 03 43 16.24 +05 02 58.5          16.8 R ET031I77
     K04T10E  C2004 10 08.16681 03 43 06.06 +05 04 04.0          17.0 R ET031I77
     K04T10E  C2004 10 08.16956 03 42 58.60 +05 04 51.3          16.9 R ET031I77
     K04T10E  C2004 10 08.22786 03 40 37.96 +05 12 30.7          16.0 R ET031932
     K04T10E  C2004 10 08.22981 03 40 33.09 +05 13 03.2          16.8 R ET031932
     K04T10E  C2004 10 08.23098 03 40 30.10 +05 13 22.5          16.2 R ET031932
     K04T10E  C2004 10 08.31989 03 37 09.57 +05 37 37.8          16.7 R ET031H06
     K04T10E  C2004 10 08.32272 03 37 02.93 +05 38 21.0          16.8 R ET031H06
     K04T10E  C2004 10 08.32559 03 36 56.24 +05 39 03.6          17.0 R ET031H06
     K04T10E  C2004 10 08.36334 03 35 34.75 +05 48 08.8          17.2 R ET031G70
     K04T10E  C2004 10 08.36717 03 35 20.92 +05 49 12.3          16.4   ET031704
     K04T10E  C2004 10 08.37002 03 35 19.65 +05 49 46.5          16.9 R ET031G70
     K04T10E  C2004 10 08.37351 03 35 11.83 +05 50 36.8          17.1 R ET031G70
     K04T10E  C2004 10 08.37802 03 34 56.44 +05 51 48.4          17.1   ET031704
     K04T10E  C2004 10 08.38887 03 34 32.29 +05 54 23.0          17.1   ET031704
     K04T10E  C2004 10 08.39972 03 34 08.09 +05 56 56.2          16.9   ET031704
     K04T10E  C2004 10 08.41071 03 33 43.94 +05 59 29.3          16.6   ET031704
     K04T10E  C2004 10 08.42813 03 33 07.79 +06 03 41.2          16.6 R ET031854
     K04T10E  C2004 10 08.43068 03 33 02.34 +06 04 15.7          16.1 R ET031854
     K04T10E  C2004 10 08.43130 03 33 00.97 +06 04 24.4          16.6 R ET031854
     K04T10E  C2004 10 08.46595 03 31 47.75 +06 11 49.9          17.0 R ET031699
     K04T10E  C2004 10 08.47569 03 31 27.90 +06 13 56.1                 ET031699
     K04T10E  C2004 10 08.48540 03 31 07.97 +06 16 02.3                 ET031699
     K04T10E  C2004 10 08.49512 03 30 48.24 +06 18 07.1                 ET031699
     K04T10E 5C2004 10 08.49668 03 30 47.30 +06 18 34.1          17.5 R ET031673
     K04T10E 5C2004 10 08.49807 03 30 44.53 +06 18 51.7                 ET031673
     K04T10E 5C2004 10 08.50061 03 30 39.36 +06 19 24.5                 ET031673
     K04T10E 5C2004 10 08.50316 03 30 34.25 +06 19 56.6                 ET031673
     K04T10E 5C2004 10 08.50675 03 30 27.05 +06 20 42.3                 ET031673
     K04T10E 5C2004 10 08.51057 03 30 19.38 +06 21 30.5                 ET031673
     K04T10E  C2004 10 08.53293 03 30 02.17 +06 35 18.2          17.0 R ET031474
     K04T10E  C2004 10 08.53362 03 30 00.82 +06 35 26.6          17.0 R ET031474
     K04T10E  C2004 10 08.53432 03 29 59.44 +06 35 35.7          17.3 R ET031474
     K04T10E  C2004 10 08.93255 03 19 29.31 +07 36 06.3          17.3 R ET031J95
     K04T10E  C2004 10 08.93637 03 19 23.82 +07 36 41.4          17.2 R ET031J95
     K04T10E  C2004 10 08.94012 03 19 18.50 +07 37 16.5          17.4 R ET031J95
     K04T10E 2C2004 10 09.11749 03 15 34.95 +08 10 16.0          17.7 R ET031I05
     K04T10E 2C2004 10 09.11848 03 15 33.57 +08 10 24.9          17.3 R ET031I05
     K04T10E 2C2004 10 09.11911 03 15 32.82 +08 10 29.4          17.4 R ET031I05
     K04T10E 2C2004 10 09.11973 03 15 31.96 +08 10 35.4          17.5 R ET031I05
     K04T10E 2C2004 10 09.12035 03 15 31.15 +08 10 39.0          17.3 R ET031I05
     K04T10E  C2004 10 09.27105 03 12 32.06 +08 24 00.9          17.3 R ET031G90
     K04T10E  C2004 10 09.27243 03 12 30.41 +08 24 11.0          17.2 R ET031G90
     K04T10E  C2004 10 09.27381 03 12 28.75 +08 24 21.2          17.4 R ET031G90
     K04T10E  C2004 10 09.38340 03 10 17.32 +08 37 30.3          17.9 R ET031711
     K04T10E  C2004 10 09.38637 03 10 13.88 +08 37 50.2          18.0 R ET031711
     K04T10E  C2004 10 09.38934 03 10 10.48 +08 38 10.2          17.6 R ET031711

Observer details:
474 Mount John Observatory, Lake Tekapo.  Observer A. C. Gilmore.  0.6-m f/6.4
    reflector + CCD.
673 Table Mountain Observatory, Wrightwood.  Observer J. Young.  0.6-m
    reflector + CCD.
699 Lowell Observatory-LONEOS.  Observer M. E. Van Ness.  0.59-m LONEOS
    Schmidt + CCD.
704 Lincoln Laboratory ETS, New Mexico.  Observers M. Blythe, F. Shelly,
    M. Bezpalko, R. Huber, L. Manguso, D. Torres, R. Kracke, M. McCleary,
    H. Stange, A. Milner.  Measurers J. Stuart, R. Sayer, J. Evans, J. Kommers.
    1.0-m f/2.15 reflector + CCD.
711 McDonald Observatory.  Observer J. G. Ries.  0.76-m reflector + CCD
    + prime-focus corrector.
854 Sabino Canyon Observatory, Tucson.  Observer J. E. McGaha.  0.36-m f/10.0
    Schmidt-Cassegrain + CCD.
932 John J. McCarthy Obs., New Milford.  Observer M. Robson.  0.4-m f/6.5
    Schmidt-Cassegrain + CCD.
G70 Francisquito Observatory, Los Angeles.  Observer R. E. Jones.  0.30-m
    f/6.7 reflector + CCD.
G90 Three Buttes Observatory, Tucson.  Observer G. R. Jones.  0.40-m
    Ritchey-Chretien + CCD.
H06 New Mexico Skies Observatory.  Observer R. Hutsebaut.  0.25-m reflector
    + CCD.
I05 Las Campanas Observatory-TIE.  Observers G. Masi, F. Mallia, R. Wilcox.
    Measurer G. Masi.  0.36-m SoTIE reflector + CCD.
I77 CEAMIG-REA Observatory, Belo Horizonte.  Observers C. Jacques, E. Pimentel.
    Measurer C. Jacques.  0.30-m f/3.0 Schmidt-Cassegrain + CCD.
J95 Great Shefford.  Observer P. Birtwhistle.  0.30-m f/6.3 Schmidt-Cassegrain
    + CCD.

Orbital elements:
2004 TE10
Epoch 2004 July 14.0 TT = JDT 2453200.5                 MPC
M 347.99080              (2000.0)            P               Q
n   0.24576851     Peri.  273.67512     +0.78731649     +0.61652126
a   2.5241698      Node    48.26244     -0.56251258     +0.72216854
e   0.6647081      Incl.    0.44954     -0.25241302     +0.31364653
P   4.01           H   24.3           G   0.15           U   6
Residuals in seconds of arc
041007 704  0.3-  0.3+    041008 704  0.2-  0.2-    041008 474  0.2-  0.4-
041007 704  0.1-  0.3+    041008 704  1.8+  0.3-    041008 474  0.2-  0.6-
041007 704  0.0   0.0     041008 704  0.1-  0.1-    041008 474  0.4-  0.2-
041007 704  0.8+  0.0     041008 704  0.1+  0.3-    041008 J95  0.2+  0.4+
041008 I77  0.2-  0.0     041008 854  1.4-  0.6+    041008 J95  0.1-  0.3-
041008 I77  0.9+  0.2-    041008 854  0.6-  0.3+    041008 J95  0.5+  0.3-
041008 I77  0.2-  0.2-    041008 854  1.1-  0.5+    041009 I05  1.3+  0.3-
041008 932  0.8-  0.1+    041008 699 (5.8-  1.7+)   041009 I05  0.3-  0.5+
041008 932  0.6-  0.5+    041008 699  0.8-  0.2+    041009 I05  0.7+  0.2-
041008 932  1.6-  0.5+    041008 699  0.8-  0.4+    041009 I05  0.2-  0.7+
041008 H06  1.5+  0.6-    041008 699  0.5-  0.1+    041009 I05  0.4-  0.7-
041008 H06  1.2+  0.2-    041008 673  0.7-  0.2+    041009 G90  0.6-  0.6+
041008 H06  1.3+  1.0-    041008 673  0.0   0.0     041009 G90  0.6-  0.4+
041008 G70  0.3+  0.7-    041008 673  0.4-  0.4+    041009 G90  0.7-  0.3+
041008 704  0.2-  0.0     041008 673  0.1+  0.0     041009 711  0.2+  0.2+
041008 G70  0.0   0.2-    041008 673  0.4+  0.1+    041009 711  0.1-  0.1+
041008 G70  0.4+  0.4-    041008 673  0.2+  0.1-    041009 711  0.1+  0.2+

Ephemeris:
2004 TE10                a,e,i = 2.52, 0.66, 0                   q = 0.8463
Date    TT    R. A. (2000) Decl.     Delta      r     Elong.  Phase     V
2004 10 02    13 33.42   -17 51.6    0.037    0.966    20.5   158.7    27.6
2004 10 03    13 20.94   -18 49.5    0.029    0.973    18.3   161.2    27.9
2004 10 04    12 58.15   -20 24.2    0.021    0.980    16.6   163.1    28.0
2004 10 05    12 05.86   -23 11.5    0.013    0.988    20.6   159.1    25.5
2004 10 06    09 22.15   -24 27.3    0.0073   0.995    53.0   126.7    19.0
2004 10 07    05 17.63   -06 03.8    0.0090   1.003   112.6    66.9    16.4
2004 10 08    03 50.39   +04 08.5    0.016    1.011   136.3    43.0    17.0
2004 10 09    03 17.77   +07 50.6    0.024    1.018   145.5    33.7    17.6
2004 10 10    03 01.36   +09 37.1    0.032    1.026   150.5    28.7    18.1
2004 10 11    02 51.53   +10 38.5    0.040    1.034   153.8    25.3    18.6
2004 10 12    02 44.97   +11 18.0    0.048    1.043   156.2    22.7    18.9

2004 10 22    02 23.51   +13 09.1    0.135    1.128   170.9     8.0    20.8
2004 11 01    02 17.67   +13 28.4    0.228    1.220   177.8     1.8    21.7

     This object passed .0069 AU from the Earth and .0054 AU from the
Moon on October 6, 2004.

Kyle E. Smalley              (C) Copyright 2004 MPC           M.P.E.C. 2004-T31

Read MPEC 2004-T30 Read MPEC 2004-T32


Our Web policy. Index to the CBAT/MPC/ICQ pages.

MPC